Time,TemperatureF,DewpointF,PressureIn,WindDirection,WindDirectionDegrees,WindSpeedMPH,WindSpeedGustMPH,Humidity,HourlyPrecipIn,Conditions,Clouds,dailyrainin,SoftwareType,DateUTC
2013-04-07 00:02:00,32.0,29.0,29.83,NNW,329,5.0,8.0,90,0.00,,,0.00,,2013-04-07 05:02:00,
2013-04-07 00:12:00,32.0,29.0,29.83,NNW,329,5.0,8.0,90,0.00,,,0.00,,2013-04-07 05:12:00,
2013-04-07 00:22:00,32.0,29.0,29.83,NNE,15,3.0,8.0,89,0.00,,,0.00,,2013-04-07 05:22:00,
2013-04-07 00:33:00,32.0,29.0,29.83,NW,325,3.0,7.0,89,0.00,,,0.00,,2013-04-07 05:33:00,
2013-04-07 00:42:00,32.0,29.0,29.83,NW,325,3.0,7.0,89,0.00,,,0.00,,2013-04-07 05:42:00,
2013-04-07 00:52:00,32.0,29.0,29.83,NW,317,2.0,6.0,89,0.00,,,0.00,,2013-04-07 05:52:00,
2013-04-07 01:02:00,32.0,29.0,29.84,NW,307,2.0,5.0,89,0.00,,,0.00,,2013-04-07 06:02:00,
2013-04-07 01:12:00,32.0,29.0,29.84,NW,307,2.0,5.0,89,0.00,,,0.00,,2013-04-07 06:12:00,
2013-04-07 01:22:00,32.0,29.0,29.84,NW,307,2.0,5.0,89,0.00,,,0.00,,2013-04-07 06:22:00,
2013-04-07 01:32:00,32.0,29.0,29.84,NW,307,2.0,5.0,89,0.00,,,0.00,,2013-04-07 06:32:00,
2013-04-07 01:42:00,32.0,29.0,29.84,NW,307,2.0,5.0,89,0.00,,,0.00,,2013-04-07 06:42:00,
2013-04-07 04:02:00,31.0,28.0,29.84,North,349,1.0,4.0,89,0.00,,,0.00,,2013-04-07 09:02:00,
2013-04-07 04:12:00,31.0,28.0,29.84,North,349,1.0,4.0,89,0.00,,,0.00,,2013-04-07 09:12:00,
2013-04-07 04:22:00,31.0,28.0,29.83,NW,307,1.0,4.0,89,0.00,,,0.00,,2013-04-07 09:22:00,
2013-04-07 04:33:00,31.0,28.0,29.84,NNW,327,1.0,4.0,89,0.00,,,0.00,,2013-04-07 09:33:00,
2013-04-07 04:43:00,31.0,28.0,29.84,NNW,327,1.0,4.0,89,0.00,,,0.00,,2013-04-07 09:43:00,
2013-04-07 05:03:00,31.0,28.0,29.85,NW,311,1.0,4.0,90,0.00,,,0.00,,2013-04-07 10:03:00,
2013-04-07 05:13:00,31.0,28.0,29.85,NW,311,1.0,4.0,90,0.00,,,0.00,,2013-04-07 10:13:00,
2013-04-07 05:22:00,31.0,28.0,29.84,NW,319,1.0,5.0,89,0.00,,,0.00,,2013-04-07 10:22:00,
2013-04-07 05:33:00,31.0,28.0,29.85,NW,325,0.0,2.0,90,0.00,,,0.00,,2013-04-07 10:33:00,
2013-04-07 05:43:00,31.0,28.0,29.85,NW,325,0.0,2.0,90,0.00,,,0.00,,2013-04-07 10:43:00,
2013-04-07 05:54:00,31.0,28.0,29.85,NW,315,0.0,2.0,90,0.00,,,0.00,,2013-04-07 10:54:00,
2013-04-07 06:03:00,31.0,28.0,29.85,NW,314,0.0,1.0,90,0.00,,,0.00,,2013-04-07 11:03:00,
2013-04-07 06:12:00,31.0,28.0,29.85,NW,314,0.0,1.0,90,0.00,,,0.00,,2013-04-07 11:12:00,
2013-04-07 06:22:00,31.0,28.0,29.85,WNW,291,0.0,1.0,90,0.00,,,0.00,,2013-04-07 11:22:00,
2013-04-07 06:32:00,31.0,28.0,29.85,WNW,291,1.0,2.0,90,0.00,,,0.00,,2013-04-07 11:32:00,
2013-04-07 06:42:00,31.0,28.0,29.85,WNW,291,1.0,2.0,90,0.00,,,0.00,,2013-04-07 11:42:00,
2013-04-07 06:53:00,31.0,28.0,29.85,WNW,286,0.0,1.0,89,0.00,,,0.00,,2013-04-07 11:53:00,
2013-04-07 07:02:00,31.0,28.0,29.85,WNW,297,0.0,1.0,90,0.00,,,0.00,,2013-04-07 12:02:00,
2013-04-07 07:12:00,31.0,28.0,29.85,WNW,297,0.0,1.0,90,0.00,,,0.00,,2013-04-07 12:12:00,
2013-04-07 07:22:00,31.0,28.0,29.85,NW,307,0.0,1.0,90,0.00,,,0.00,,2013-04-07 12:22:00,
2013-04-07 07:34:00,31.0,28.0,29.85,NW,307,0.0,1.0,90,0.00,,,0.00,,2013-04-07 12:34:00,
2013-04-07 07:43:00,31.0,28.0,29.85,NW,307,0.0,1.0,90,0.00,,,0.00,,2013-04-07 12:43:00,
2013-04-07 07:53:00,31.0,28.0,29.85,WNW,300,0.0,1.0,90,0.00,,,0.00,,2013-04-07 12:53:00,
2013-04-07 08:03:00,31.0,29.0,29.86,WNW,291,0.0,2.0,91,0.00,,,0.00,,2013-04-07 13:03:00,
2013-04-07 08:13:00,31.0,29.0,29.86,WNW,291,0.0,2.0,91,0.00,,,0.00,,2013-04-07 13:13:00,
2013-04-07 08:22:00,31.0,28.0,29.86,WNW,282,0.0,1.0,90,0.00,,,0.00,,2013-04-07 13:22:00,
2013-04-07 08:32:00,31.0,28.0,29.86,WNW,297,1.0,2.0,90,0.00,,,0.00,,2013-04-07 13:32:00,
2013-04-07 08:42:00,31.0,28.0,29.86,WNW,297,1.0,2.0,90,0.00,,,0.00,,2013-04-07 13:42:00,
2013-04-07 08:53:00,31.0,28.0,29.86,NNW,331,1.0,3.0,89,0.00,,,0.00,,2013-04-07 13:53:00,
2013-04-07 09:02:00,32.0,29.0,29.86,WNW,302,1.0,3.0,89,0.00,,,0.00,,2013-04-07 14:02:00,
2013-04-07 09:12:00,32.0,29.0,29.86,WNW,302,1.0,3.0,89,0.00,,,0.00,,2013-04-07 14:12:00,
2013-04-07 09:23:00,32.0,29.0,29.87,NW,321,0.0,3.0,88,0.00,,,0.00,,2013-04-07 14:23:00,
2013-04-07 09:32:00,32.0,29.0,29.87,NW,321,0.0,3.0,88,0.00,,,0.00,,2013-04-07 14:32:00,
2013-04-07 09:43:00,32.0,29.0,29.87,NW,321,0.0,3.0,88,0.00,,,0.00,,2013-04-07 14:43:00,
2013-04-07 09:54:00,32.0,29.0,29.87,North,350,1.0,2.0,87,0.00,,,0.00,,2013-04-07 14:54:00,
2013-04-07 10:02:00,32.0,28.0,29.86,NW,322,1.0,3.0,86,0.00,,,0.00,,2013-04-07 15:02:00,
2013-04-07 10:12:00,32.0,28.0,29.86,NW,322,1.0,3.0,86,0.00,,,0.00,,2013-04-07 15:12:00,
2013-04-07 10:22:00,32.0,28.0,29.86,NW,322,1.0,3.0,86,0.00,,,0.00,,2013-04-07 15:22:00,
2013-04-07 10:34:00,33.0,29.0,29.85,NNE,17,0.0,2.0,85,0.00,,,0.00,,2013-04-07 15:34:00,
2013-04-07 10:44:00,33.0,29.0,29.85,NNE,17,0.0,2.0,85,0.00,,,0.00,,2013-04-07 15:44:00,
2013-04-07 10:55:00,33.0,29.0,29.85,NNE,17,0.0,2.0,85,0.00,,,0.00,,2013-04-07 15:55:00,
2013-04-07 11:04:00,33.0,29.0,29.85,ENE,72,1.0,2.0,84,0.00,,,0.00,,2013-04-07 16:04:00,
2013-04-07 11:13:00,33.0,29.0,29.85,ENE,72,1.0,2.0,84,0.00,,,0.00,,2013-04-07 16:13:00,
2013-04-07 11:24:00,33.0,29.0,29.85,ENE,72,1.0,2.0,84,0.00,,,0.00,,2013-04-07 16:24:00,
2013-04-07 11:33:00,33.0,29.0,29.84,SE,134,0.0,2.0,85,0.00,,,0.00,,2013-04-07 16:33:00,
2013-04-07 11:43:00,33.0,29.0,29.84,SE,134,0.0,2.0,85,0.00,,,0.00,,2013-04-07 16:43:00,
2013-04-07 11:53:00,33.0,29.0,29.84,SE,134,0.0,2.0,85,0.00,,,0.00,,2013-04-07 16:53:00,
2013-04-07 12:04:00,35.0,30.0,29.85,SSE,158,0.0,3.0,83,0.00,,,0.00,,2013-04-07 17:04:00,
2013-04-07 12:13:00,35.0,30.0,29.85,SSE,158,0.0,3.0,83,0.00,,,0.00,,2013-04-07 17:13:00,
2013-04-07 12:23:00,35.0,30.0,29.85,SSE,158,0.0,3.0,83,0.00,,,0.00,,2013-04-07 17:23:00,
2013-04-07 12:33:00,35.0,30.0,29.84,South,179,1.0,3.0,82,0.00,,,0.00,,2013-04-07 17:33:00,
2013-04-07 12:43:00,35.0,30.0,29.84,South,179,1.0,3.0,82,0.00,,,0.00,,2013-04-07 17:43:00,
2013-04-07 12:54:00,35.0,30.0,29.83,SSW,210,1.0,3.0,81,0.00,,,0.00,,2013-04-07 17:54:00,
2013-04-07 13:02:00,35.0,30.0,29.83,SE,138,0.0,4.0,81,0.00,,,0.00,,2013-04-07 18:02:00,
2013-04-07 13:13:00,35.0,30.0,29.83,SE,138,0.0,4.0,81,0.00,,,0.00,,2013-04-07 18:13:00,
2013-04-07 13:23:00,35.0,30.0,29.83,SE,138,0.0,4.0,81,0.00,,,0.00,,2013-04-07 18:23:00,
2013-04-07 13:32:00,35.0,30.0,29.81,SE,134,2.0,4.0,82,0.00,,,0.00,,2013-04-07 18:32:00,
2013-04-07 13:43:00,35.0,30.0,29.81,SE,134,2.0,4.0,82,0.00,,,0.00,,2013-04-07 18:43:00,
2013-04-07 13:52:00,35.0,30.0,29.82,SE,130,2.0,3.0,81,0.00,,,0.00,,2013-04-07 18:52:00,
2013-04-07 14:02:00,35.0,30.0,29.82,SE,130,2.0,3.0,81,0.00,,,0.00,,2013-04-07 19:02:00,
2013-04-07 14:12:00,35.0,30.0,29.82,SE,130,2.0,3.0,81,0.00,,,0.00,,2013-04-07 19:12:00,
2013-04-07 14:22:00,35.0,30.0,29.80,ESE,112,2.0,6.0,81,0.00,,,0.00,,2013-04-07 19:22:00,
2013-04-07 14:32:00,35.0,30.0,29.80,ESE,112,2.0,6.0,81,0.00,,,0.00,,2013-04-07 19:32:00,
2013-04-07 14:43:00,35.0,30.0,29.80,ESE,112,2.0,6.0,81,0.00,,,0.00,,2013-04-07 19:43:00,
2013-04-07 14:55:00,35.0,30.0,29.80,ESE,107,3.0,4.0,81,0.00,,,0.00,,2013-04-07 19:55:00,
2013-04-07 15:02:00,35.0,30.0,29.79,ESE,115,3.0,5.0,82,0.00,,,0.00,,2013-04-07 20:02:00,
2013-04-07 15:13:00,35.0,30.0,29.79,ESE,115,3.0,5.0,82,0.00,,,0.00,,2013-04-07 20:13:00,
2013-04-07 15:22:00,35.0,31.0,29.79,SE,139,3.0,5.0,84,0.00,,,0.00,,2013-04-07 20:22:00,
2013-04-07 15:33:00,34.0,30.0,29.79,SE,138,2.0,5.0,86,0.00,,,0.00,,2013-04-07 20:33:00,
2013-04-07 15:43:00,34.0,30.0,29.79,SE,138,2.0,5.0,86,0.00,,,0.00,,2013-04-07 20:43:00,
2013-04-07 15:52:00,34.0,31.0,29.80,South,187,2.0,5.0,87,0.00,,,0.00,,2013-04-07 20:52:00,
2013-04-07 16:03:00,33.0,30.0,29.80,SW,218,0.0,2.0,90,0.00,,,0.00,,2013-04-07 21:03:00,
2013-04-07 16:13:00,33.0,30.0,29.80,SW,218,0.0,2.0,90,0.00,,,0.00,,2013-04-07 21:13:00,
2013-04-07 16:22:00,34.0,31.0,29.80,SSW,203,0.0,1.0,90,0.00,,,0.00,,2013-04-07 21:22:00,
2013-04-07 16:34:00,35.0,32.0,29.80,SSE,167,0.0,0.0,90,0.00,,,0.00,,2013-04-07 21:34:00,
2013-04-07 16:43:00,35.0,32.0,29.80,SSE,167,0.0,0.0,90,0.00,,,0.00,,2013-04-07 21:43:00,
2013-04-07 16:53:00,35.0,32.0,29.80,SSE,167,0.0,0.0,90,0.00,,,0.00,,2013-04-07 21:53:00,
2013-04-07 17:03:00,33.0,31.0,29.79,East,98,0.0,1.0,92,0.00,,,0.00,,2013-04-07 22:03:00,
2013-04-07 17:14:00,33.0,31.0,29.79,East,98,0.0,1.0,92,0.00,,,0.00,,2013-04-07 22:14:00,
2013-04-07 17:23:00,33.0,31.0,29.79,East,79,0.0,1.0,93,0.00,,,0.00,,2013-04-07 22:23:00,
2013-04-07 17:34:00,32.0,30.0,29.79,ENE,78,2.0,2.0,94,0.00,,,0.00,,2013-04-07 22:34:00,
2013-04-07 17:43:00,32.0,30.0,29.79,ENE,78,2.0,2.0,94,0.00,,,0.00,,2013-04-07 22:43:00,
2013-04-07 17:52:00,32.0,30.0,29.79,ENE,78,2.0,2.0,94,0.00,,,0.00,,2013-04-07 22:52:00,
2013-04-07 18:03:00,32.0,31.0,29.79,ENE,75,1.0,3.0,95,0.00,,,0.00,,2013-04-07 23:03:00,
2013-04-07 18:13:00,32.0,31.0,29.79,ENE,75,1.0,3.0,95,0.00,,,0.00,,2013-04-07 23:13:00,
2013-04-07 18:22:00,32.0,31.0,29.79,ENE,76,2.0,3.0,95,0.00,,,0.00,,2013-04-07 23:22:00,
2013-04-07 18:32:00,32.0,31.0,29.80,East,91,1.0,2.0,96,0.00,,,0.00,,2013-04-07 23:32:00,
2013-04-07 18:43:00,32.0,31.0,29.80,East,91,1.0,2.0,96,0.00,,,0.00,,2013-04-07 23:43:00,
2013-04-07 18:52:00,32.0,31.0,29.79,ENE,77,1.0,2.0,96,0.00,,,0.00,,2013-04-07 23:52:00,
2013-04-07 19:02:00,32.0,31.0,29.79,East,96,1.0,2.0,96,0.00,,,0.00,,2013-04-08 00:02:00,
2013-04-07 19:12:00,32.0,31.0,29.79,East,96,1.0,2.0,96,0.00,,,0.00,,2013-04-08 00:12:00,
2013-04-07 19:22:00,32.0,31.0,29.80,East,93,0.0,3.0,96,0.00,,,0.00,,2013-04-08 00:22:00,
2013-04-07 19:32:00,32.0,31.0,29.80,ESE,109,0.0,1.0,96,0.00,,,0.00,,2013-04-08 00:32:00,
2013-04-07 19:42:00,32.0,31.0,29.80,ESE,109,0.0,1.0,96,0.00,,,0.00,,2013-04-08 00:42:00,
2013-04-07 19:52:00,32.0,31.0,29.80,ESE,108,0.0,1.0,96,0.00,,,0.00,,2013-04-08 00:52:00,
2013-04-07 20:03:00,32.0,31.0,29.81,ESE,104,0.0,2.0,96,0.00,,,0.00,,2013-04-08 01:03:00,
2013-04-07 20:12:00,32.0,31.0,29.81,ESE,104,0.0,2.0,96,0.00,,,0.00,,2013-04-08 01:12:00,
2013-04-07 20:22:00,32.0,31.0,29.80,East,96,1.0,2.0,96,0.00,,,0.00,,2013-04-08 01:22:00,
2013-04-07 20:33:00,32.0,31.0,29.80,East,95,0.0,1.0,96,0.00,,,0.00,,2013-04-08 01:33:00,
2013-04-07 20:43:00,32.0,31.0,29.80,East,95,0.0,1.0,96,0.00,,,0.00,,2013-04-08 01:43:00,
2013-04-07 20:53:00,32.0,31.0,29.80,East,96,1.0,1.0,96,0.00,,,0.00,,2013-04-08 01:53:00,
2013-04-07 21:02:00,32.0,31.0,29.80,East,101,1.0,3.0,96,0.00,,,0.00,,2013-04-08 02:02:00,
2013-04-07 21:12:00,32.0,31.0,29.80,East,101,1.0,3.0,96,0.00,,,0.00,,2013-04-08 02:12:00,
2013-04-07 21:22:00,32.0,31.0,29.80,ENE,77,2.0,3.0,96,0.00,,,0.00,,2013-04-08 02:22:00,
2013-04-07 21:33:00,32.0,31.0,29.80,East,79,2.0,3.0,96,0.00,,,0.00,,2013-04-08 02:33:00,
2013-04-07 21:53:00,32.0,31.0,29.80,ENE,66,2.0,4.0,96,0.00,,,0.00,,2013-04-08 02:53:00,
2013-04-07 22:07:00,32.0,31.0,29.80,ENE,71,2.0,3.0,96,0.00,,,0.00,,2013-04-08 03:07:00,
2013-04-07 22:15:00,32.0,31.0,29.80,ENE,71,2.0,3.0,96,0.00,,,0.00,,2013-04-08 03:15:00,
2013-04-07 22:24:00,32.0,31.0,29.80,ENE,75,2.0,4.0,96,0.00,,,0.00,,2013-04-08 03:24:00,
2013-04-07 22:34:00,32.0,31.0,29.81,ENE,75,2.0,4.0,96,0.00,,,0.00,,2013-04-08 03:34:00,
2013-04-07 22:47:00,32.0,31.0,29.81,ENE,75,2.0,4.0,96,0.00,,,0.00,,2013-04-08 03:47:00,
2013-04-07 22:53:00,32.0,31.0,29.80,East,83,3.0,4.0,96,0.00,,,0.00,,2013-04-08 03:53:00,
2013-04-07 23:03:00,32.0,31.0,29.80,East,83,3.0,4.0,96,0.00,,,0.00,,2013-04-08 04:03:00,
2013-04-07 23:12:00,32.0,31.0,29.80,East,83,3.0,4.0,96,0.00,,,0.00,,2013-04-08 04:12:00,
2013-04-07 23:23:00,32.0,31.0,29.80,ENE,75,3.0,5.0,96,0.00,,,0.00,,2013-04-08 04:23:00,
2013-04-07 23:33:00,32.0,31.0,29.80,East,82,3.0,5.0,96,0.00,,,0.00,,2013-04-08 04:33:00,
2013-04-07 23:44:00,32.0,31.0,29.80,East,82,3.0,5.0,96,0.00,,,0.00,,2013-04-08 04:44:00,
2013-04-07 23:52:00,32.0,31.0,29.79,ENE,65,3.0,6.0,96,0.00,,,0.00,,2013-04-08 04:52:00,